Time,TemperatureF,DewpointF,PressureIn,WindDirection,WindDirectionDegrees,WindSpeedMPH,WindSpeedGustMPH,Humidity,HourlyPrecipIn,Conditions,Clouds,dailyrainin,SoftwareType,DateUTC
2013-06-06 00:00:00,58.6,43.5,30.10,WSW,250,0.0,0.0,57,0.00,,,0.00,VWS V14.01,2013-06-06 04:00:00,
2013-06-06 00:01:00,58.6,43.5,30.10,SW,233,3.6,3.6,57,0.00,,,0.00,VWS V14.01,2013-06-06 04:01:00,
2013-06-06 00:02:00,58.6,43.5,30.10,SW,233,2.7,3.6,57,0.00,,,0.00,VWS V14.01,2013-06-06 04:02:00,
2013-06-06 00:05:00,58.5,43.3,30.10,SW,233,0.0,3.6,57,0.00,,,0.00,VWS V14.01,2013-06-06 04:05:00,
2013-06-06 00:07:00,58.5,43.3,30.10,SW,233,2.2,2.7,57,0.00,,,0.00,VWS V14.01,2013-06-06 04:07:00,
2013-06-06 00:10:00,58.5,43.3,30.10,SW,235,2.2,2.7,57,0.00,,,0.00,VWS V14.01,2013-06-06 04:10:00,
2013-06-06 00:12:00,58.5,43.3,30.10,SW,235,0.0,3.1,57,0.00,,,0.00,VWS V14.01,2013-06-06 04:12:00,
2013-06-06 00:15:00,58.5,43.3,30.10,SW,234,2.7,3.1,57,0.00,,,0.00,VWS V14.01,2013-06-06 04:15:00,
2013-06-06 00:17:00,58.5,42.8,30.10,SW,234,2.7,3.1,56,0.00,,,0.00,VWS V14.01,2013-06-06 04:17:00,
2013-06-06 00:20:00,58.5,42.8,30.10,SW,234,2.2,3.1,56,0.00,,,0.00,VWS V14.01,2013-06-06 04:20:00,
2013-06-06 00:23:00,58.5,43.3,30.10,South,171,0.0,3.6,57,0.00,,,0.00,VWS V14.01,2013-06-06 04:23:00,
2013-06-06 00:25:00,58.3,43.1,30.10,West,271,2.7,3.6,57,0.00,,,0.00,VWS V14.01,2013-06-06 04:25:00,
2013-06-06 00:28:00,58.3,43.1,30.10,West,271,0.0,2.7,57,0.00,,,0.00,VWS V14.01,2013-06-06 04:28:00,
2013-06-06 00:30:00,58.3,43.1,30.10,West,271,0.0,2.7,57,0.00,,,0.00,VWS V14.01,2013-06-06 04:30:00,
2013-06-06 00:33:00,58.3,43.1,30.10,West,271,0.0,0.0,57,0.00,,,0.00,VWS V14.01,2013-06-06 04:33:00,
2013-06-06 00:35:00,58.1,43.0,30.10,West,271,0.0,0.0,57,0.00,,,0.00,VWS V14.01,2013-06-06 04:35:00,
2013-06-06 00:38:00,58.1,43.0,30.10,West,271,0.0,2.7,57,0.00,,,0.00,VWS V14.01,2013-06-06 04:38:00,
2013-06-06 00:40:00,58.1,43.0,30.10,West,271,0.0,2.7,57,0.00,,,0.00,VWS V14.01,2013-06-06 04:40:00,
2013-06-06 00:43:00,58.1,43.0,30.10,West,271,0.0,0.0,57,0.00,,,0.00,VWS V14.01,2013-06-06 04:43:00,
2013-06-06 00:45:00,58.1,43.0,30.10,West,271,2.7,2.7,57,0.00,,,0.00,VWS V14.01,2013-06-06 04:45:00,
2013-06-06 00:48:00,58.1,43.0,30.10,West,271,0.0,3.6,57,0.00,,,0.00,VWS V14.01,2013-06-06 04:48:00,
2013-06-06 00:50:00,58.1,43.4,30.10,West,271,0.0,3.6,58,0.00,,,0.00,VWS V14.01,2013-06-06 04:50:00,
2013-06-06 00:53:00,58.1,43.4,30.10,South,173,0.0,4.0,58,0.00,,,0.00,VWS V14.01,2013-06-06 04:53:00,
2013-06-06 00:55:00,57.9,43.2,30.10,South,173,0.0,4.0,58,0.00,,,0.00,VWS V14.01,2013-06-06 04:55:00,
2013-06-06 00:58:00,57.9,43.2,30.10,South,173,0.0,0.0,58,0.00,,,0.00,VWS V14.01,2013-06-06 04:58:00,
2013-06-06 01:00:00,57.9,43.7,30.10,South,173,0.0,0.0,59,0.00,,,0.00,VWS V14.01,2013-06-06 05:00:00,
2013-06-06 01:03:00,57.9,43.7,30.10,SSW,212,0.0,2.2,59,0.00,,,0.00,VWS V14.01,2013-06-06 05:03:00,
2013-06-06 01:05:00,57.9,43.7,30.10,SSW,213,2.7,2.7,59,0.00,,,0.00,VWS V14.01,2013-06-06 05:05:00,
2013-06-06 01:08:00,57.9,44.1,30.10,SSW,213,0.0,2.7,60,0.00,,,0.00,VWS V14.01,2013-06-06 05:08:00,
2013-06-06 01:10:00,57.9,44.1,30.10,SSW,213,2.7,2.7,60,0.00,,,0.00,VWS V14.01,2013-06-06 05:10:00,
2013-06-06 01:13:00,57.7,44.0,30.10,SSW,213,0.0,2.7,60,0.00,,,0.00,VWS V14.01,2013-06-06 05:13:00,
2013-06-06 01:15:00,57.7,44.0,30.10,SSW,213,0.0,2.7,60,0.00,,,0.00,VWS V14.01,2013-06-06 05:15:00,
2013-06-06 01:18:00,57.7,44.4,30.10,SSW,213,0.0,0.0,61,0.00,,,0.00,VWS V14.01,2013-06-06 05:18:00,
2013-06-06 01:20:00,57.7,44.4,30.10,SSW,213,0.0,0.0,61,0.00,,,0.00,VWS V14.01,2013-06-06 05:20:00,
2013-06-06 01:23:00,57.6,44.2,30.10,SSW,213,0.0,0.0,61,0.00,,,0.00,VWS V14.01,2013-06-06 05:23:00,
2013-06-06 01:25:00,57.6,44.2,30.10,SSW,213,0.0,2.7,61,0.00,,,0.00,VWS V14.01,2013-06-06 05:25:00,
2013-06-06 01:28:00,57.6,44.7,30.10,SSW,213,0.0,0.0,62,0.00,,,0.00,VWS V14.01,2013-06-06 05:28:00,
2013-06-06 01:30:00,57.6,44.7,30.10,SSW,213,0.0,0.0,62,0.00,,,0.00,VWS V14.01,2013-06-06 05:30:00,
2013-06-06 01:33:00,57.6,45.1,30.10,SSW,213,0.0,2.7,63,0.00,,,0.00,VWS V14.01,2013-06-06 05:33:00,
2013-06-06 01:35:00,57.6,45.1,30.10,SSW,213,0.0,2.7,63,0.00,,,0.00,VWS V14.01,2013-06-06 05:35:00,
2013-06-06 01:38:00,57.6,45.5,30.10,SSW,213,0.0,0.0,64,0.00,,,0.00,VWS V14.01,2013-06-06 05:38:00,
2013-06-06 01:40:00,57.6,45.5,30.10,SSW,213,0.0,0.0,64,0.00,,,0.00,VWS V14.01,2013-06-06 05:40:00,
2013-06-06 01:43:00,57.6,45.5,30.10,SSW,213,0.0,0.0,64,0.00,,,0.00,VWS V14.01,2013-06-06 05:43:00,
2013-06-06 01:45:00,57.4,45.3,30.10,SSW,213,0.0,0.0,64,0.00,,,0.00,VWS V14.01,2013-06-06 05:45:00,
2013-06-06 01:48:00,57.2,45.2,30.10,SSW,213,0.0,0.0,64,0.00,,,0.00,VWS V14.01,2013-06-06 05:48:00,
2013-06-06 01:50:00,57.2,45.2,30.10,SSW,213,0.0,0.0,64,0.00,,,0.00,VWS V14.01,2013-06-06 05:50:00,
2013-06-06 01:54:00,56.8,45.2,30.10,SSW,213,0.0,0.0,65,0.00,,,0.00,VWS V14.01,2013-06-06 05:54:00,
2013-06-06 01:55:00,56.8,45.2,30.10,SSW,213,0.0,0.0,65,0.00,,,0.00,VWS V14.01,2013-06-06 05:55:00,
2013-06-06 01:59:00,56.7,45.0,30.10,SSW,213,0.0,0.0,65,0.00,,,0.00,VWS V14.01,2013-06-06 05:59:00,
2013-06-06 02:00:00,56.7,45.0,30.10,SSW,213,0.0,0.0,65,0.00,,,0.00,VWS V14.01,2013-06-06 06:00:00,
2013-06-06 02:04:00,56.3,45.1,30.10,SSW,213,0.0,0.0,66,0.00,,,0.00,VWS V14.01,2013-06-06 06:04:00,
2013-06-06 02:05:00,56.3,45.1,30.10,SSW,213,0.0,0.0,66,0.00,,,0.00,VWS V14.01,2013-06-06 06:05:00,
2013-06-06 02:09:00,56.1,44.9,30.10,SSW,213,0.0,0.0,66,0.00,,,0.00,VWS V14.01,2013-06-06 06:09:00,
2013-06-06 02:10:00,56.1,44.9,30.10,SSW,213,0.0,0.0,66,0.00,,,0.00,VWS V14.01,2013-06-06 06:10:00,
2013-06-06 02:14:00,56.1,45.3,30.13,SSW,213,0.0,0.0,67,0.00,,,0.00,VWS V14.01,2013-06-06 06:14:00,
2013-06-06 02:15:00,56.1,45.3,30.13,SSW,213,0.0,0.0,67,0.00,,,0.00,VWS V14.01,2013-06-06 06:15:00,
2013-06-06 02:19:00,55.9,45.2,30.13,SSW,213,0.0,0.0,67,0.00,,,0.00,VWS V14.01,2013-06-06 06:19:00,
2013-06-06 02:20:00,55.9,45.2,30.13,SSW,213,0.0,0.0,67,0.00,,,0.00,VWS V14.01,2013-06-06 06:20:00,
2013-06-06 02:24:00,55.8,45.4,30.13,SW,215,0.0,2.7,68,0.00,,,0.00,VWS V14.01,2013-06-06 06:24:00,
2013-06-06 02:25:00,55.8,45.4,30.13,SW,215,0.0,2.7,68,0.00,,,0.00,VWS V14.01,2013-06-06 06:25:00,
2013-06-06 02:29:00,55.4,45.0,30.10,SW,215,0.0,0.0,68,0.00,,,0.00,VWS V14.01,2013-06-06 06:29:00,
2013-06-06 02:30:00,55.4,45.0,30.10,SW,215,0.0,0.0,68,0.00,,,0.00,VWS V14.01,2013-06-06 06:30:00,
2013-06-06 02:34:00,55.2,45.2,30.10,SW,215,0.0,0.0,69,0.00,,,0.00,VWS V14.01,2013-06-06 06:34:00,
2013-06-06 02:35:00,55.4,45.4,30.10,SW,216,0.0,0.0,69,0.00,,,0.00,VWS V14.01,2013-06-06 06:35:00,
2013-06-06 02:39:00,55.0,45.5,30.10,SW,215,2.2,2.2,70,0.00,,,0.00,VWS V14.01,2013-06-06 06:39:00,
2013-06-06 02:40:00,55.0,45.5,30.10,SW,215,2.2,2.2,70,0.00,,,0.00,VWS V14.01,2013-06-06 06:40:00,
2013-06-06 02:44:00,55.0,45.5,30.10,SW,216,0.0,0.0,70,0.00,,,0.00,VWS V14.01,2013-06-06 06:44:00,
2013-06-06 02:45:00,55.0,45.5,30.10,SW,216,0.0,3.1,70,0.00,,,0.00,VWS V14.01,2013-06-06 06:45:00,
2013-06-06 02:49:00,54.9,45.3,30.10,SW,216,0.0,0.0,70,0.00,,,0.00,VWS V14.01,2013-06-06 06:49:00,
2013-06-06 02:50:00,54.9,45.3,30.10,SW,216,0.0,0.0,70,0.00,,,0.00,VWS V14.01,2013-06-06 06:50:00,
2013-06-06 02:54:00,54.7,45.5,30.10,SW,216,0.0,0.0,71,0.00,,,0.00,VWS V14.01,2013-06-06 06:54:00,
2013-06-06 02:55:00,54.7,45.5,30.10,SW,216,0.0,0.0,71,0.00,,,0.00,VWS V14.01,2013-06-06 06:55:00,
2013-06-06 02:59:00,54.5,45.3,30.10,SW,216,0.0,0.0,71,0.00,,,0.00,VWS V14.01,2013-06-06 06:59:00,
2013-06-06 03:00:00,54.5,45.3,30.10,SW,216,0.0,0.0,71,0.00,,,0.00,VWS V14.01,2013-06-06 07:00:00,
2013-06-06 03:04:00,54.5,45.7,30.10,SW,216,0.0,0.0,72,0.00,,,0.00,VWS V14.01,2013-06-06 07:04:00,
2013-06-06 03:05:00,54.5,45.7,30.10,SW,216,0.0,0.0,72,0.00,,,0.00,VWS V14.01,2013-06-06 07:05:00,
2013-06-06 03:10:00,54.5,45.7,30.10,SW,216,0.0,0.0,72,0.00,,,0.00,VWS V14.01,2013-06-06 07:10:00,
2013-06-06 03:15:00,54.5,45.7,30.10,SW,216,0.0,0.0,72,0.00,,,0.00,VWS V14.01,2013-06-06 07:15:00,
2013-06-06 03:20:00,54.3,45.5,30.10,SW,216,0.0,0.0,72,0.00,,,0.00,VWS V14.01,2013-06-06 07:20:00,
2013-06-06 03:25:00,54.0,45.2,30.10,SW,216,0.0,0.0,72,0.00,,,0.00,VWS V14.01,2013-06-06 07:25:00,
2013-06-06 03:30:00,53.8,45.3,30.10,SW,216,0.0,0.0,73,0.00,,,0.00,VWS V14.01,2013-06-06 07:30:00,
2013-06-06 03:35:00,53.6,45.2,30.10,SW,216,0.0,0.0,73,0.00,,,0.00,VWS V14.01,2013-06-06 07:35:00,
2013-06-06 03:40:00,53.4,45.0,30.10,SW,216,0.0,0.0,73,0.00,,,0.00,VWS V14.01,2013-06-06 07:40:00,
2013-06-06 03:45:00,53.4,45.3,30.10,SW,216,0.0,0.0,74,0.00,,,0.00,VWS V14.01,2013-06-06 07:45:00,
2013-06-06 03:50:00,53.1,45.0,30.10,SW,216,0.0,0.0,74,0.00,,,0.00,VWS V14.01,2013-06-06 07:50:00,
2013-06-06 03:55:00,53.1,45.0,30.10,SW,216,0.0,0.0,74,0.00,,,0.00,VWS V14.01,2013-06-06 07:55:00,
2013-06-06 04:00:00,52.9,44.8,30.10,SW,216,0.0,0.0,74,0.00,,,0.00,VWS V14.01,2013-06-06 08:00:00,
2013-06-06 04:05:00,53.1,45.4,30.10,SW,216,0.0,0.0,75,0.00,,,0.00,VWS V14.01,2013-06-06 08:05:00,
2013-06-06 04:10:00,53.1,45.4,30.10,SW,216,0.0,0.0,75,0.00,,,0.00,VWS V14.01,2013-06-06 08:10:00,
2013-06-06 04:15:00,52.9,45.2,30.10,SW,216,0.0,0.0,75,0.00,,,0.00,VWS V14.01,2013-06-06 08:15:00,
2013-06-06 04:20:00,52.9,45.2,30.10,SW,216,0.0,0.0,75,0.00,,,0.00,VWS V14.01,2013-06-06 08:20:00,
2013-06-06 04:25:00,52.7,45.4,30.10,SW,216,0.0,0.0,76,0.00,,,0.00,VWS V14.01,2013-06-06 08:25:00,
2013-06-06 04:30:00,52.5,45.2,30.10,SW,216,0.0,0.0,76,0.00,,,0.00,VWS V14.01,2013-06-06 08:30:00,
2013-06-06 04:35:00,52.3,45.0,30.10,SW,216,0.0,0.0,76,0.00,,,0.00,VWS V14.01,2013-06-06 08:35:00,
2013-06-06 04:40:00,52.3,45.0,30.10,SW,216,0.0,0.0,76,0.00,,,0.00,VWS V14.01,2013-06-06 08:40:00,
2013-06-06 04:45:00,52.2,44.8,30.10,SW,216,0.0,0.0,76,0.00,,,0.00,VWS V14.01,2013-06-06 08:45:00,
2013-06-06 04:46:00,52.2,44.8,30.10,SW,216,0.0,0.0,76,0.00,,,0.00,VWS V14.01,2013-06-06 08:46:00,
2013-06-06 04:50:00,52.2,45.2,30.10,SW,216,0.0,0.0,77,0.00,,,0.00,VWS V14.01,2013-06-06 08:50:00,
2013-06-06 04:51:00,52.2,45.2,30.10,SW,216,0.0,0.0,77,0.00,,,0.00,VWS V14.01,2013-06-06 08:51:00,
2013-06-06 04:55:00,52.2,45.2,30.10,SW,216,0.0,0.0,77,0.00,,,0.00,VWS V14.01,2013-06-06 08:55:00,
2013-06-06 04:56:00,52.2,45.2,30.10,SW,216,0.0,0.0,77,0.00,,,0.00,VWS V14.01,2013-06-06 08:56:00,
2013-06-06 05:00:00,52.2,45.2,30.10,SW,216,0.0,0.0,77,0.00,,,0.00,VWS V14.01,2013-06-06 09:00:00,
2013-06-06 05:01:00,52.0,45.0,30.10,SW,216,0.0,0.0,77,0.00,,,0.00,VWS V14.01,2013-06-06 09:01:00,
2013-06-06 05:05:00,52.0,45.0,30.10,SW,216,0.0,0.0,77,0.00,,,0.00,VWS V14.01,2013-06-06 09:05:00,
2013-06-06 05:06:00,52.0,45.0,30.10,SW,216,0.0,0.0,77,0.00,,,0.00,VWS V14.01,2013-06-06 09:06:00,
2013-06-06 05:10:00,52.0,45.3,30.10,SW,216,0.0,0.0,78,0.00,,,0.00,VWS V14.01,2013-06-06 09:10:00,
2013-06-06 05:11:00,52.0,45.3,30.10,SW,216,0.0,0.0,78,0.00,,,0.00,VWS V14.01,2013-06-06 09:11:00,
2013-06-06 05:15:00,52.0,45.3,30.10,SW,216,0.0,0.0,78,0.00,,,0.00,VWS V14.01,2013-06-06 09:15:00,
2013-06-06 05:16:00,52.0,45.3,30.10,SW,216,0.0,0.0,78,0.00,,,0.00,VWS V14.01,2013-06-06 09:16:00,
2013-06-06 05:20:00,52.0,45.3,30.10,SW,216,0.0,0.0,78,0.00,,,0.00,VWS V14.01,2013-06-06 09:20:00,
2013-06-06 05:21:00,52.0,45.3,30.10,SW,216,0.0,0.0,78,0.00,,,0.00,VWS V14.01,2013-06-06 09:21:00,
2013-06-06 05:25:00,52.0,45.3,30.10,SW,216,0.0,0.0,78,0.00,,,0.00,VWS V14.01,2013-06-06 09:25:00,
2013-06-06 05:26:00,52.2,45.8,30.10,SW,216,0.0,0.0,79,0.00,,,0.00,VWS V14.01,2013-06-06 09:26:00,
2013-06-06 05:30:00,52.3,46.0,30.10,SW,216,0.0,0.0,79,0.00,,,0.00,VWS V14.01,2013-06-06 09:30:00,
2013-06-06 05:31:00,52.5,46.5,30.10,SW,216,0.0,0.0,80,0.00,,,0.00,VWS V14.01,2013-06-06 09:31:00,
2013-06-06 05:35:00,52.7,46.7,30.10,SW,216,0.0,0.0,80,0.00,,,0.00,VWS V14.01,2013-06-06 09:35:00,
2013-06-06 05:36:00,52.7,46.7,30.10,SW,216,0.0,0.0,80,0.00,,,0.00,VWS V14.01,2013-06-06 09:36:00,
2013-06-06 05:40:00,52.7,46.7,30.10,SW,216,0.0,0.0,80,0.00,,,0.00,VWS V14.01,2013-06-06 09:40:00,
2013-06-06 05:42:00,52.7,46.7,30.10,SW,216,0.0,0.0,80,0.00,,,0.00,VWS V14.01,2013-06-06 09:42:00,
2013-06-06 05:45:00,52.9,46.9,30.10,SW,216,0.0,0.0,80,0.00,,,0.00,VWS V14.01,2013-06-06 09:45:00,
2013-06-06 05:47:00,52.9,46.9,30.10,SW,216,0.0,0.0,80,0.00,,,0.00,VWS V14.01,2013-06-06 09:47:00,
2013-06-06 05:50:00,53.1,47.4,30.10,SW,216,0.0,0.0,81,0.00,,,0.00,VWS V14.01,2013-06-06 09:50:00,
2013-06-06 05:52:00,52.9,47.2,30.10,SW,216,0.0,0.0,81,0.00,,,0.00,VWS V14.01,2013-06-06 09:52:00,
2013-06-06 05:55:00,52.9,47.2,30.10,SW,216,0.0,0.0,81,0.00,,,0.00,VWS V14.01,2013-06-06 09:55:00,
2013-06-06 05:57:00,52.9,47.2,30.10,SW,216,0.0,0.0,81,0.00,,,0.00,VWS V14.01,2013-06-06 09:57:00,
2013-06-06 06:00:00,52.9,47.2,30.10,SW,216,0.0,0.0,81,0.00,,,0.00,VWS V14.01,2013-06-06 10:00:00,
2013-06-06 06:02:00,52.9,47.2,30.10,SW,216,0.0,0.0,81,0.00,,,0.00,VWS V14.01,2013-06-06 10:02:00,
2013-06-06 06:05:00,53.1,47.4,30.10,SW,216,0.0,0.0,81,0.00,,,0.00,VWS V14.01,2013-06-06 10:05:00,
2013-06-06 06:07:00,53.1,47.4,30.10,SW,216,0.0,0.0,81,0.00,,,0.00,VWS V14.01,2013-06-06 10:07:00,
2013-06-06 06:10:00,53.2,47.6,30.10,SW,216,0.0,0.0,81,0.00,,,0.00,VWS V14.01,2013-06-06 10:10:00,
2013-06-06 06:12:00,53.4,48.1,30.10,SW,216,0.0,0.0,82,0.00,,,0.00,VWS V14.01,2013-06-06 10:12:00,
2013-06-06 06:15:00,53.4,48.1,30.10,SW,216,0.0,0.0,82,0.00,,,0.00,VWS V14.01,2013-06-06 10:15:00,
2013-06-06 06:17:00,53.6,48.2,30.10,SW,216,0.0,0.0,82,0.00,,,0.00,VWS V14.01,2013-06-06 10:17:00,
2013-06-06 06:20:00,53.8,48.4,30.10,SW,216,0.0,0.0,82,0.00,,,0.00,VWS V14.01,2013-06-06 10:20:00,
2013-06-06 06:22:00,54.1,48.8,30.10,SW,216,0.0,0.0,82,0.00,,,0.00,VWS V14.01,2013-06-06 10:22:00,
2013-06-06 06:25:00,54.1,48.8,30.10,SW,216,0.0,0.0,82,0.00,,,0.00,VWS V14.01,2013-06-06 10:25:00,
2013-06-06 06:27:00,54.3,49.3,30.10,SW,216,0.0,0.0,83,0.00,,,0.00,VWS V14.01,2013-06-06 10:27:00,
2013-06-06 06:30:00,54.3,49.3,30.10,SW,216,0.0,0.0,83,0.00,,,0.00,VWS V14.01,2013-06-06 10:30:00,
2013-06-06 06:32:00,54.5,49.5,30.10,SW,216,0.0,0.0,83,0.00,,,0.00,VWS V14.01,2013-06-06 10:32:00,
2013-06-06 06:35:00,54.5,49.5,30.10,SW,216,0.0,0.0,83,0.00,,,0.00,VWS V14.01,2013-06-06 10:35:00,
2013-06-06 06:37:00,54.7,49.6,30.10,SW,216,0.0,0.0,83,0.00,,,0.00,VWS V14.01,2013-06-06 10:37:00,
2013-06-06 06:40:00,54.7,49.6,30.10,SW,216,0.0,0.0,83,0.00,,,0.00,VWS V14.01,2013-06-06 10:40:00,
2013-06-06 06:42:00,55.0,50.0,30.10,SW,216,0.0,0.0,83,0.00,,,0.00,VWS V14.01,2013-06-06 10:42:00,
2013-06-06 06:45:00,55.0,50.0,30.10,SW,216,0.0,0.0,83,0.00,,,0.00,VWS V14.01,2013-06-06 10:45:00,
2013-06-06 06:47:00,55.4,50.3,30.10,SW,216,0.0,0.0,83,0.00,,,0.00,VWS V14.01,2013-06-06 10:47:00,
2013-06-06 06:50:00,55.4,50.3,30.10,SW,216,0.0,0.0,83,0.00,,,0.00,VWS V14.01,2013-06-06 10:50:00,
2013-06-06 06:53:00,55.8,50.7,30.10,SW,216,0.0,0.0,83,0.00,,,0.00,VWS V14.01,2013-06-06 10:53:00,
2013-06-06 06:55:00,55.9,51.2,30.10,SW,216,0.0,0.0,84,0.00,,,0.00,VWS V14.01,2013-06-06 10:55:00,
2013-06-06 06:58:00,56.3,51.5,30.10,SW,216,0.0,0.0,84,0.00,,,0.00,VWS V14.01,2013-06-06 10:58:00,
2013-06-06 07:00:00,56.3,51.5,30.10,SW,216,0.0,0.0,84,0.00,,,0.00,VWS V14.01,2013-06-06 11:00:00,
2013-06-06 07:03:00,56.7,51.9,30.10,SW,216,0.0,0.0,84,0.00,,,0.00,VWS V14.01,2013-06-06 11:03:00,
2013-06-06 07:05:00,56.7,51.9,30.10,SSE,164,2.2,3.1,84,0.00,,,0.00,VWS V14.01,2013-06-06 11:05:00,
2013-06-06 07:08:00,57.0,52.2,30.10,SSE,164,0.0,2.2,84,0.00,,,0.00,VWS V14.01,2013-06-06 11:08:00,
2013-06-06 07:10:00,57.0,52.2,30.10,SSE,164,0.0,2.2,84,0.00,,,0.00,VWS V14.01,2013-06-06 11:10:00,
2013-06-06 07:13:00,57.4,52.6,30.10,SSE,164,0.0,0.0,84,0.00,,,0.00,VWS V14.01,2013-06-06 11:13:00,
2013-06-06 07:15:00,57.4,52.6,30.10,SSE,164,0.0,0.0,84,0.00,,,0.00,VWS V14.01,2013-06-06 11:15:00,
2013-06-06 07:18:00,57.4,52.6,30.10,SSE,164,0.0,0.0,84,0.00,,,0.00,VWS V14.01,2013-06-06 11:18:00,
2013-06-06 07:20:00,57.6,52.8,30.10,SSE,164,0.0,0.0,84,0.00,,,0.00,VWS V14.01,2013-06-06 11:20:00,
2013-06-06 07:23:00,57.6,52.8,30.10,SSE,164,0.0,0.0,84,0.00,,,0.00,VWS V14.01,2013-06-06 11:23:00,
2013-06-06 07:25:00,57.7,52.9,30.10,SSE,164,0.0,0.0,84,0.00,,,0.00,VWS V14.01,2013-06-06 11:25:00,
2013-06-06 07:28:00,57.6,52.4,30.10,SSE,164,2.7,3.1,83,0.00,,,0.00,VWS V14.01,2013-06-06 11:28:00,
2013-06-06 07:30:00,57.6,52.4,30.10,SSE,164,2.7,3.1,83,0.00,,,0.00,VWS V14.01,2013-06-06 11:30:00,
2013-06-06 07:33:00,57.6,52.4,30.10,SSE,160,3.6,4.5,83,0.00,,,0.00,VWS V14.01,2013-06-06 11:33:00,
2013-06-06 07:35:00,57.6,52.4,30.10,SSE,160,2.7,4.5,83,0.00,,,0.00,VWS V14.01,2013-06-06 11:35:00,
2013-06-06 07:38:00,57.4,52.3,30.10,SSE,160,2.7,4.0,83,0.00,,,0.00,VWS V14.01,2013-06-06 11:38:00,
2013-06-06 07:40:00,57.4,52.3,30.10,SSE,160,2.2,4.0,83,0.00,,,0.00,VWS V14.01,2013-06-06 11:40:00,
2013-06-06 07:43:00,57.6,52.1,30.10,SSE,160,3.1,3.1,82,0.00,,,0.00,VWS V14.01,2013-06-06 11:43:00,
2013-06-06 07:45:00,57.6,52.1,30.10,SSE,160,2.7,3.1,82,0.00,,,0.00,VWS V14.01,2013-06-06 11:45:00,
2013-06-06 07:48:00,57.6,52.1,30.10,SSE,160,0.0,2.7,82,0.00,,,0.00,VWS V14.01,2013-06-06 11:48:00,
2013-06-06 07:50:00,57.6,52.1,30.10,SSE,160,0.0,2.7,82,0.00,,,0.00,VWS V14.01,2013-06-06 11:50:00,
2013-06-06 07:53:00,58.3,52.8,30.10,SSE,160,0.0,0.0,82,0.00,,,0.00,VWS V14.01,2013-06-06 11:53:00,
2013-06-06 07:55:00,58.3,52.8,30.10,SSE,160,0.0,0.0,82,0.00,,,0.00,VWS V14.01,2013-06-06 11:55:00,
2013-06-06 07:58:00,58.8,53.3,30.10,SSE,160,0.0,0.0,82,0.00,,,0.00,VWS V14.01,2013-06-06 11:58:00,
2013-06-06 08:00:00,59.0,53.5,30.10,SSE,160,0.0,0.0,82,0.00,,,0.00,VWS V14.01,2013-06-06 12:00:00,
2013-06-06 08:03:00,59.2,53.4,30.10,SSE,160,0.0,0.0,81,0.00,,,0.00,VWS V14.01,2013-06-06 12:03:00,
2013-06-06 08:05:00,59.2,53.4,30.10,SSE,160,0.0,0.0,81,0.00,,,0.00,VWS V14.01,2013-06-06 12:05:00,
2013-06-06 08:08:00,59.7,53.9,30.10,SSE,160,0.0,3.1,81,0.00,,,0.00,VWS V14.01,2013-06-06 12:08:00,
2013-06-06 08:10:00,59.7,53.9,30.10,SSE,160,0.0,3.1,81,0.00,,,0.00,VWS V14.01,2013-06-06 12:10:00,
2013-06-06 08:13:00,60.1,54.2,30.10,SSE,160,0.0,2.7,81,0.00,,,0.00,VWS V14.01,2013-06-06 12:13:00,
2013-06-06 08:15:00,60.1,54.2,30.10,SSE,160,0.0,2.7,81,0.00,,,0.00,VWS V14.01,2013-06-06 12:15:00,
2013-06-06 08:19:00,59.9,53.7,30.10,SSE,160,0.0,2.7,80,0.00,,,0.00,VWS V14.01,2013-06-06 12:19:00,
2013-06-06 08:20:00,59.9,53.7,30.10,SSE,160,0.0,2.7,80,0.00,,,0.00,VWS V14.01,2013-06-06 12:20:00,
2013-06-06 08:24:00,60.4,54.2,30.10,SSE,164,5.8,5.8,80,0.00,,,0.00,VWS V14.01,2013-06-06 12:24:00,
2013-06-06 08:25:00,60.4,54.2,30.10,SSE,156,4.0,5.8,80,0.00,,,0.00,VWS V14.01,2013-06-06 12:25:00,
2013-06-06 08:29:00,60.1,53.6,30.10,SE,130,2.7,5.4,79,0.00,,,0.00,VWS V14.01,2013-06-06 12:29:00,
2013-06-06 08:30:00,59.9,53.4,30.10,SE,130,3.1,5.4,79,0.00,,,0.00,VWS V14.01,2013-06-06 12:30:00,
2013-06-06 08:34:00,60.1,53.6,30.10,SE,128,2.7,4.9,79,0.00,,,0.00,VWS V14.01,2013-06-06 12:34:00,
2013-06-06 08:35:00,60.1,53.6,30.10,SE,128,2.2,4.9,79,0.00,,,0.00,VWS V14.01,2013-06-06 12:35:00,
2013-06-06 08:39:00,60.4,53.9,30.10,SSE,155,0.0,4.0,79,0.00,,,0.00,VWS V14.01,2013-06-06 12:39:00,
2013-06-06 08:40:00,60.4,53.9,30.10,SSE,155,0.0,4.0,79,0.00,,,0.00,VWS V14.01,2013-06-06 12:40:00,
2013-06-06 08:44:00,61.0,54.1,30.10,SSE,155,0.0,0.0,78,0.00,,,0.00,VWS V14.01,2013-06-06 12:44:00,
2013-06-06 08:45:00,61.0,54.1,30.10,SSE,155,0.0,4.0,78,0.00,,,0.00,VWS V14.01,2013-06-06 12:45:00,
2013-06-06 08:49:00,61.2,54.3,30.10,SSE,161,3.1,3.1,78,0.00,,,0.00,VWS V14.01,2013-06-06 12:49:00,
2013-06-06 08:50:00,61.2,54.3,30.10,SSE,161,2.7,4.9,78,0.00,,,0.00,VWS V14.01,2013-06-06 12:50:00,
2013-06-06 08:54:00,61.3,54.1,30.10,ESE,115,2.7,3.1,77,0.00,,,0.00,VWS V14.01,2013-06-06 12:54:00,
2013-06-06 08:55:00,61.3,54.1,30.10,ESE,115,3.1,5.8,77,0.00,,,0.00,VWS V14.01,2013-06-06 12:55:00,
2013-06-06 08:59:00,61.5,53.9,30.10,ESE,116,3.1,3.6,76,0.00,,,0.00,VWS V14.01,2013-06-06 12:59:00,
2013-06-06 09:00:00,61.5,53.9,30.10,ESE,116,3.6,4.5,76,0.00,,,0.00,VWS V14.01,2013-06-06 13:00:00,
2013-06-06 09:04:00,61.7,53.7,30.10,SE,128,5.4,5.4,75,0.00,,,0.00,VWS V14.01,2013-06-06 13:04:00,
2013-06-06 09:05:00,61.7,53.7,30.10,SSE,152,2.7,4.9,75,0.00,,,0.00,VWS V14.01,2013-06-06 13:05:00,
2013-06-06 09:09:00,61.7,53.7,30.10,SSE,156,4.0,4.9,75,0.00,,,0.00,VWS V14.01,2013-06-06 13:09:00,
2013-06-06 09:10:00,61.7,53.7,30.10,SSE,156,4.9,5.4,75,0.00,,,0.00,VWS V14.01,2013-06-06 13:10:00,
2013-06-06 09:14:00,61.9,53.5,30.10,SE,130,6.3,6.3,74,0.00,,,0.00,VWS V14.01,2013-06-06 13:14:00,
2013-06-06 09:15:00,61.7,53.3,30.10,SE,125,2.7,4.9,74,0.00,,,0.00,VWS V14.01,2013-06-06 13:15:00,
2013-06-06 09:19:00,62.1,53.3,30.10,SE,136,4.0,4.0,73,0.00,,,0.00,VWS V14.01,2013-06-06 13:19:00,
2013-06-06 09:20:00,62.1,53.3,30.10,South,173,3.1,6.3,73,0.00,,,0.00,VWS V14.01,2013-06-06 13:20:00,
2013-06-06 09:25:00,62.2,53.5,30.10,SE,131,4.0,4.5,73,0.00,,,0.00,VWS V14.01,2013-06-06 13:25:00,
2013-06-06 09:30:00,62.4,53.3,30.10,SE,131,2.7,4.0,72,0.00,,,0.00,VWS V14.01,2013-06-06 13:30:00,
2013-06-06 09:35:00,62.6,53.1,30.10,SE,125,4.0,4.0,71,0.00,,,0.00,VWS V14.01,2013-06-06 13:35:00,
2013-06-06 09:40:00,62.4,52.5,30.10,SE,125,0.0,2.2,70,0.00,,,0.00,VWS V14.01,2013-06-06 13:40:00,
2013-06-06 09:45:00,63.0,53.0,30.10,SE,125,2.7,3.1,70,0.00,,,0.00,VWS V14.01,2013-06-06 13:45:00,
2013-06-06 09:50:00,63.1,53.2,30.10,ESE,109,3.1,4.0,70,0.00,,,0.00,VWS V14.01,2013-06-06 13:50:00,
2013-06-06 09:55:00,63.3,53.4,30.10,SE,131,3.6,5.4,70,0.00,,,0.00,VWS V14.01,2013-06-06 13:55:00,
2013-06-06 10:00:00,63.5,53.2,30.07,SE,133,3.1,4.0,69,0.00,,,0.00,VWS V14.01,2013-06-06 14:00:00,
2013-06-06 10:05:00,63.7,52.9,30.07,SE,136,2.7,4.0,68,0.00,,,0.00,VWS V14.01,2013-06-06 14:05:00,
2013-06-06 10:10:00,64.0,52.9,30.07,SE,129,2.7,4.0,67,0.00,,,0.00,VWS V14.01,2013-06-06 14:10:00,
2013-06-06 10:15:00,63.9,52.3,30.07,SE,140,2.7,5.4,66,0.00,,,0.00,VWS V14.01,2013-06-06 14:15:00,
2013-06-06 10:20:00,64.2,52.6,30.07,SE,132,4.9,6.3,66,0.00,,,0.00,VWS V14.01,2013-06-06 14:20:00,
2013-06-06 10:25:00,64.2,52.2,30.07,SSE,156,2.7,5.8,65,0.00,,,0.00,VWS V14.01,2013-06-06 14:25:00,
2013-06-06 10:30:00,64.8,52.3,30.07,SSE,159,3.6,5.4,64,0.00,,,0.00,VWS V14.01,2013-06-06 14:30:00,
2013-06-06 10:35:00,65.3,52.4,30.07,SSE,154,0.0,2.7,63,0.00,,,0.00,VWS V14.01,2013-06-06 14:35:00,
2013-06-06 10:40:00,65.1,52.2,30.07,ENE,67,3.6,3.6,63,0.00,,,0.00,VWS V14.01,2013-06-06 14:40:00,
2013-06-06 10:41:00,65.3,52.4,30.07,SSE,157,5.4,5.4,63,0.00,,,0.00,VWS V14.01,2013-06-06 14:41:00,
2013-06-06 10:45:00,65.3,52.0,30.07,SSE,150,2.7,7.2,62,0.00,,,0.00,VWS V14.01,2013-06-06 14:45:00,
2013-06-06 10:46:00,65.7,52.3,30.07,SE,139,0.0,4.0,62,0.00,,,0.00,VWS V14.01,2013-06-06 14:46:00,
2013-06-06 10:50:00,65.7,51.9,30.07,SE,126,2.7,4.0,61,0.00,,,0.00,VWS V14.01,2013-06-06 14:50:00,
2013-06-06 10:51:00,65.8,52.0,30.07,SSE,152,7.6,7.6,61,0.00,,,0.00,VWS V14.01,2013-06-06 14:51:00,
2013-06-06 10:55:00,66.0,52.2,30.07,SE,130,4.0,7.6,61,0.00,,,0.00,VWS V14.01,2013-06-06 14:55:00,
2013-06-06 10:56:00,66.2,51.9,30.07,SSE,152,4.5,5.4,60,0.00,,,0.00,VWS V14.01,2013-06-06 14:56:00,
2013-06-06 11:00:00,66.2,51.9,30.07,SE,130,3.1,5.4,60,0.00,,,0.00,VWS V14.01,2013-06-06 15:00:00,
2013-06-06 11:01:00,66.2,51.5,30.07,SSE,157,5.8,5.8,59,0.00,,,0.00,VWS V14.01,2013-06-06 15:01:00,
2013-06-06 11:05:00,66.2,51.5,30.07,SSE,150,2.7,5.8,59,0.00,,,0.00,VWS V14.01,2013-06-06 15:05:00,
2013-06-06 11:06:00,66.2,51.0,30.07,SE,125,2.7,5.4,58,0.00,,,0.00,VWS V14.01,2013-06-06 15:06:00,
2013-06-06 11:10:00,66.2,51.0,30.07,SE,142,0.0,5.4,58,0.00,,,0.00,VWS V14.01,2013-06-06 15:10:00,
2013-06-06 11:11:00,66.4,51.2,30.07,SE,144,5.4,5.4,58,0.00,,,0.00,VWS V14.01,2013-06-06 15:11:00,
2013-06-06 11:15:00,66.4,51.2,30.07,SSE,152,6.7,7.6,58,0.00,,,0.00,VWS V14.01,2013-06-06 15:15:00,
2013-06-06 11:16:00,66.4,51.2,30.07,SSE,151,4.0,6.7,58,0.00,,,0.00,VWS V14.01,2013-06-06 15:16:00,
2013-06-06 11:20:00,66.4,50.7,30.07,East,95,4.0,6.7,57,0.00,,,0.00,VWS V14.01,2013-06-06 15:20:00,
2013-06-06 11:21:00,66.4,50.7,30.07,East,95,3.1,4.0,57,0.00,,,0.00,VWS V14.01,2013-06-06 15:21:00,
2013-06-06 11:25:00,66.2,50.5,30.07,SE,130,3.6,5.4,57,0.00,,,0.00,VWS V14.01,2013-06-06 15:25:00,
2013-06-06 11:26:00,66.4,50.7,30.07,SE,145,3.1,8.3,57,0.00,,,0.00,VWS V14.01,2013-06-06 15:26:00,
2013-06-06 11:30:00,66.4,50.2,30.07,East,93,4.9,8.3,56,0.00,,,0.00,VWS V14.01,2013-06-06 15:30:00,
2013-06-06 11:32:00,66.6,49.9,30.07,SSE,150,3.6,6.3,55,0.00,,,0.00,VWS V14.01,2013-06-06 15:32:00,
2013-06-06 11:35:00,66.6,49.9,30.07,SE,140,3.1,6.3,55,0.00,,,0.00,VWS V14.01,2013-06-06 15:35:00,
2013-06-06 11:37:00,66.7,50.1,30.07,SSE,150,4.0,7.6,55,0.00,,,0.00,VWS V14.01,2013-06-06 15:37:00,
2013-06-06 11:40:00,66.7,50.1,30.07,SSE,150,2.7,7.6,55,0.00,,,0.00,VWS V14.01,2013-06-06 15:40:00,
2013-06-06 11:42:00,66.9,49.8,30.07,SE,137,4.0,4.5,54,0.00,,,0.00,VWS V14.01,2013-06-06 15:42:00,
2013-06-06 11:45:00,66.9,49.8,30.07,ESE,123,2.7,6.3,54,0.00,,,0.00,VWS V14.01,2013-06-06 15:45:00,
2013-06-06 11:47:00,66.7,49.1,30.07,ESE,116,4.0,6.3,53,0.00,,,0.00,VWS V14.01,2013-06-06 15:47:00,
2013-06-06 11:50:00,66.6,48.4,30.07,ESE,113,4.0,6.3,52,0.00,,,0.00,VWS V14.01,2013-06-06 15:50:00,
2013-06-06 11:52:00,66.6,48.4,30.07,East,96,5.4,6.3,52,0.00,,,0.00,VWS V14.01,2013-06-06 15:52:00,
2013-06-06 11:55:00,66.4,48.2,30.07,SSE,159,4.9,6.3,52,0.00,,,0.00,VWS V14.01,2013-06-06 15:55:00,
2013-06-06 11:57:00,66.6,48.4,30.07,ESE,116,4.0,6.7,52,0.00,,,0.00,VWS V14.01,2013-06-06 15:57:00,
2013-06-06 12:00:00,66.6,48.4,30.07,SSE,147,5.8,6.7,52,0.00,,,0.00,VWS V14.01,2013-06-06 16:00:00,
2013-06-06 12:02:00,66.4,48.2,30.07,ESE,122,3.1,7.6,52,0.00,,,0.00,VWS V14.01,2013-06-06 16:02:00,
2013-06-06 12:05:00,66.4,48.2,30.07,ESE,122,3.1,7.6,52,0.00,,,0.00,VWS V14.01,2013-06-06 16:05:00,
2013-06-06 12:07:00,66.6,48.9,30.07,SSE,160,3.1,4.9,53,0.00,,,0.00,VWS V14.01,2013-06-06 16:07:00,
2013-06-06 12:10:00,66.6,48.9,30.07,SSE,167,5.4,6.7,53,0.00,,,0.00,VWS V14.01,2013-06-06 16:10:00,
2013-06-06 12:12:00,66.6,48.9,30.07,ESE,120,5.4,5.8,53,0.00,,,0.00,VWS V14.01,2013-06-06 16:12:00,
2013-06-06 12:15:00,66.6,48.9,30.04,SSE,166,5.4,5.8,53,0.00,,,0.00,VWS V14.01,2013-06-06 16:15:00,
2013-06-06 12:17:00,66.9,49.8,30.04,SE,135,3.6,6.3,54,0.00,,,0.00,VWS V14.01,2013-06-06 16:17:00,
2013-06-06 12:20:00,66.9,49.8,30.04,ESE,110,4.0,6.3,54,0.00,,,0.00,VWS V14.01,2013-06-06 16:20:00,
2013-06-06 12:23:00,66.9,49.8,30.04,ESE,104,3.1,5.4,54,0.00,,,0.00,VWS V14.01,2013-06-06 16:23:00,
2013-06-06 12:25:00,66.9,49.8,30.04,SE,124,3.6,5.4,54,0.00,,,0.00,VWS V14.01,2013-06-06 16:25:00,
2013-06-06 12:28:00,67.3,50.6,30.04,SE,126,6.3,8.1,55,0.00,,,0.00,VWS V14.01,2013-06-06 16:28:00,
2013-06-06 12:30:00,67.3,50.1,30.04,SE,134,5.8,8.1,54,0.00,,,0.00,VWS V14.01,2013-06-06 16:30:00,
2013-06-06 12:33:00,67.1,49.9,30.04,SE,133,5.4,5.8,54,0.00,,,0.00,VWS V14.01,2013-06-06 16:33:00,
2013-06-06 12:35:00,67.1,49.9,30.04,SE,130,4.0,8.1,54,0.00,,,0.00,VWS V14.01,2013-06-06 16:35:00,
2013-06-06 12:38:00,66.7,49.6,30.04,ESE,103,4.0,12.8,54,0.00,,,0.00,VWS V14.01,2013-06-06 16:38:00,
2013-06-06 12:40:00,66.7,49.6,30.04,SSE,160,7.6,12.8,54,0.00,,,0.00,VWS V14.01,2013-06-06 16:40:00,
2013-06-06 12:43:00,66.7,49.6,30.04,ESE,107,8.1,10.1,54,0.00,,,0.00,VWS V14.01,2013-06-06 16:43:00,
2013-06-06 12:45:00,66.7,49.6,30.07,ESE,111,5.4,10.1,54,0.00,,,0.00,VWS V14.01,2013-06-06 16:45:00,
2013-06-06 12:48:00,66.6,49.9,30.07,South,180,4.0,8.7,55,0.00,,,0.00,VWS V14.01,2013-06-06 16:48:00,
2013-06-06 12:50:00,66.7,50.1,30.07,SSE,166,2.7,8.7,55,0.00,,,0.00,VWS V14.01,2013-06-06 16:50:00,
2013-06-06 12:53:00,66.7,50.6,30.07,SE,126,2.7,6.3,56,0.00,,,0.00,VWS V14.01,2013-06-06 16:53:00,
2013-06-06 12:55:00,66.9,50.7,30.07,SSE,157,6.3,6.3,56,0.00,,,0.00,VWS V14.01,2013-06-06 16:55:00,
2013-06-06 12:58:00,67.1,51.4,30.07,SE,143,5.4,6.3,57,0.00,,,0.00,VWS V14.01,2013-06-06 16:58:00,
2013-06-06 13:00:00,67.1,51.4,30.07,South,182,3.1,6.3,57,0.00,,,0.00,VWS V14.01,2013-06-06 17:00:00,
2013-06-06 13:03:00,66.9,51.2,30.07,SSE,156,8.1,8.1,57,0.00,,,0.00,VWS V14.01,2013-06-06 17:03:00,
2013-06-06 13:05:00,66.9,51.2,30.07,SE,146,6.3,8.1,57,0.00,,,0.00,VWS V14.01,2013-06-06 17:05:00,
2013-06-06 13:08:00,66.9,51.7,30.07,SSE,154,3.1,6.3,58,0.00,,,0.00,VWS V14.01,2013-06-06 17:08:00,
2013-06-06 13:10:00,66.9,51.7,30.07,SE,131,4.9,6.3,58,0.00,,,0.00,VWS V14.01,2013-06-06 17:10:00,
2013-06-06 13:13:00,66.7,51.5,30.07,SSE,156,5.4,5.4,58,0.00,,,0.00,VWS V14.01,2013-06-06 17:13:00,
2013-06-06 13:15:00,66.9,51.7,30.07,SSE,151,2.7,5.4,58,0.00,,,0.00,VWS V14.01,2013-06-06 17:15:00,
2013-06-06 13:18:00,66.9,51.7,30.07,SE,141,2.7,7.6,58,0.00,,,0.00,VWS V14.01,2013-06-06 17:18:00,
2013-06-06 13:20:00,66.9,51.2,30.07,SE,141,3.6,7.6,57,0.00,,,0.00,VWS V14.01,2013-06-06 17:20:00,
2013-06-06 13:23:00,66.7,51.0,30.07,East,92,2.7,5.8,57,0.00,,,0.00,VWS V14.01,2013-06-06 17:23:00,
2013-06-06 13:25:00,66.7,51.0,30.07,ESE,115,5.4,6.3,57,0.00,,,0.00,VWS V14.01,2013-06-06 17:25:00,
2013-06-06 13:28:00,66.6,50.4,30.04,SE,145,3.6,8.3,56,0.00,,,0.00,VWS V14.01,2013-06-06 17:28:00,
2013-06-06 13:30:00,66.6,50.4,30.04,SE,127,3.1,8.3,56,0.00,,,0.00,VWS V14.01,2013-06-06 17:30:00,
2013-06-06 13:33:00,66.6,50.4,30.04,ESE,122,2.7,5.4,56,0.00,,,0.00,VWS V14.01,2013-06-06 17:33:00,
2013-06-06 13:35:00,66.6,49.9,30.04,SE,130,3.6,5.4,55,0.00,,,0.00,VWS V14.01,2013-06-06 17:35:00,
2013-06-06 13:38:00,66.6,49.9,30.04,SE,136,0.0,4.0,55,0.00,,,0.00,VWS V14.01,2013-06-06 17:38:00,
2013-06-06 13:40:00,66.6,49.9,30.04,East,101,4.0,4.0,55,0.00,,,0.00,VWS V14.01,2013-06-06 17:40:00,
2013-06-06 13:44:00,66.2,49.1,30.04,SSW,207,3.6,5.8,54,0.00,,,0.00,VWS V14.01,2013-06-06 17:44:00,
2013-06-06 13:45:00,66.2,49.1,30.04,ESE,119,5.4,5.8,54,0.00,,,0.00,VWS V14.01,2013-06-06 17:45:00,
2013-06-06 13:49:00,66.0,48.4,30.04,ESE,115,5.4,8.1,53,0.00,,,0.00,VWS V14.01,2013-06-06 17:49:00,
2013-06-06 13:50:00,66.0,48.4,30.04,ESE,115,3.6,8.1,53,0.00,,,0.00,VWS V14.01,2013-06-06 17:50:00,
2013-06-06 13:54:00,66.0,47.9,30.04,SE,131,2.7,5.8,52,0.00,,,0.00,VWS V14.01,2013-06-06 17:54:00,
2013-06-06 13:55:00,66.0,47.9,30.04,SE,131,2.7,5.8,52,0.00,,,0.00,VWS V14.01,2013-06-06 17:55:00,
2013-06-06 13:59:00,65.8,47.7,30.04,ESE,113,2.7,5.8,52,0.00,,,0.00,VWS V14.01,2013-06-06 17:59:00,
2013-06-06 14:00:00,65.8,47.7,30.04,ESE,103,4.9,5.8,52,0.00,,,0.00,VWS V14.01,2013-06-06 18:00:00,
2013-06-06 14:04:00,66.0,48.4,30.04,SSE,160,6.3,6.3,53,0.00,,,0.00,VWS V14.01,2013-06-06 18:04:00,
2013-06-06 14:05:00,66.0,48.4,30.04,SSE,156,5.4,6.3,53,0.00,,,0.00,VWS V14.01,2013-06-06 18:05:00,
2013-06-06 14:09:00,65.8,47.7,30.04,ESE,105,0.0,5.4,52,0.00,,,0.00,VWS V14.01,2013-06-06 18:09:00,
2013-06-06 14:10:00,65.8,47.7,30.04,ESE,105,0.0,5.4,52,0.00,,,0.00,VWS V14.01,2013-06-06 18:10:00,
2013-06-06 14:14:00,65.8,47.7,30.04,SE,139,2.2,3.6,52,0.00,,,0.00,VWS V14.01,2013-06-06 18:14:00,
2013-06-06 14:15:00,65.8,47.7,30.04,SE,139,2.2,3.6,52,0.00,,,0.00,VWS V14.01,2013-06-06 18:15:00,
2013-06-06 14:19:00,65.8,48.2,30.04,SE,138,4.9,6.3,53,0.00,,,0.00,VWS V14.01,2013-06-06 18:19:00,
2013-06-06 14:20:00,65.8,48.2,30.04,SE,138,4.9,6.3,53,0.00,,,0.00,VWS V14.01,2013-06-06 18:20:00,
2013-06-06 14:24:00,65.7,47.6,30.04,East,90,3.1,3.1,52,0.00,,,0.00,VWS V14.01,2013-06-06 18:24:00,
2013-06-06 14:25:00,65.7,47.6,30.04,ENE,77,2.7,4.9,52,0.00,,,0.00,VWS V14.01,2013-06-06 18:25:00,
2013-06-06 14:29:00,65.7,48.1,30.04,ESE,118,2.7,2.7,53,0.00,,,0.00,VWS V14.01,2013-06-06 18:29:00,
2013-06-06 14:30:00,65.7,48.1,30.04,ESE,118,2.7,4.0,53,0.00,,,0.00,VWS V14.01,2013-06-06 18:30:00,
2013-06-06 14:34:00,65.7,48.6,30.04,SE,126,5.8,6.3,54,0.00,,,0.00,VWS V14.01,2013-06-06 18:34:00,
2013-06-06 14:35:00,65.7,48.6,30.04,SE,129,6.3,6.3,54,0.00,,,0.00,VWS V14.01,2013-06-06 18:35:00,
2013-06-06 14:39:00,65.5,48.4,30.04,SSE,162,4.0,4.0,54,0.00,,,0.00,VWS V14.01,2013-06-06 18:39:00,
2013-06-06 14:40:00,65.5,48.4,30.04,SE,124,3.1,8.1,54,0.00,,,0.00,VWS V14.01,2013-06-06 18:40:00,
2013-06-06 14:44:00,65.5,48.9,30.04,SE,136,3.1,5.4,55,0.00,,,0.00,VWS V14.01,2013-06-06 18:44:00,
2013-06-06 14:45:00,65.5,48.9,30.04,SSE,150,2.2,5.8,55,0.00,,,0.00,VWS V14.01,2013-06-06 18:45:00,
2013-06-06 14:49:00,65.5,49.4,30.04,SSE,168,6.3,6.3,56,0.00,,,0.00,VWS V14.01,2013-06-06 18:49:00,
2013-06-06 14:50:00,65.5,49.4,30.04,SE,141,3.6,7.6,56,0.00,,,0.00,VWS V14.01,2013-06-06 18:50:00,
2013-06-06 14:55:00,65.5,49.9,30.04,South,176,2.2,4.0,57,0.00,,,0.00,VWS V14.01,2013-06-06 18:55:00,
2013-06-06 15:00:00,65.5,50.3,30.04,SE,137,3.1,4.0,58,0.00,,,0.00,VWS V14.01,2013-06-06 19:00:00,
2013-06-06 15:05:00,65.5,50.3,30.04,SSE,156,4.0,4.0,58,0.00,,,0.00,VWS V14.01,2013-06-06 19:05:00,
2013-06-06 15:10:00,65.5,50.3,30.04,SE,142,3.1,3.6,58,0.00,,,0.00,VWS V14.01,2013-06-06 19:10:00,
2013-06-06 15:15:00,65.1,50.5,30.04,SE,129,4.0,5.4,59,0.00,,,0.00,VWS V14.01,2013-06-06 19:15:00,
2013-06-06 15:20:00,65.3,51.1,30.04,SSE,151,0.0,2.7,60,0.00,,,0.00,VWS V14.01,2013-06-06 19:20:00,
2013-06-06 15:25:00,64.9,51.2,30.04,ESE,119,3.1,4.9,61,0.00,,,0.00,VWS V14.01,2013-06-06 19:25:00,
2013-06-06 15:30:00,64.9,51.6,30.04,SE,125,5.4,5.4,62,0.00,,,0.00,VWS V14.01,2013-06-06 19:30:00,
2013-06-06 15:35:00,64.8,51.9,30.04,ESE,117,4.0,4.9,63,0.00,,,0.00,VWS V14.01,2013-06-06 19:35:00,
2013-06-06 15:40:00,64.8,51.9,30.04,East,79,4.0,4.0,63,0.00,,,0.00,VWS V14.01,2013-06-06 19:40:00,
2013-06-06 15:45:00,64.6,52.1,30.04,SE,133,3.1,5.8,64,0.00,,,0.00,VWS V14.01,2013-06-06 19:45:00,
2013-06-06 15:50:00,64.4,52.0,30.04,SE,146,4.5,5.8,64,0.00,,,0.00,VWS V14.01,2013-06-06 19:50:00,
2013-06-06 15:51:00,64.2,52.2,30.04,ESE,114,4.9,5.4,65,0.00,,,0.00,VWS V14.01,2013-06-06 19:51:00,
2013-06-06 15:55:00,64.0,52.5,30.04,SE,126,3.6,5.4,66,0.00,,,0.00,VWS V14.01,2013-06-06 19:55:00,
2013-06-06 15:56:00,64.0,52.9,30.04,ESE,121,3.6,4.0,67,0.00,,,0.00,VWS V14.01,2013-06-06 19:56:00,
2013-06-06 16:00:00,63.9,52.7,30.04,South,169,4.9,6.3,67,0.00,,,0.00,VWS V14.01,2013-06-06 20:00:00,
2013-06-06 16:01:00,63.9,52.7,30.04,SSE,153,0.0,4.9,67,0.00,,,0.00,VWS V14.01,2013-06-06 20:01:00,
2013-06-06 16:05:00,63.7,52.9,30.04,SE,140,3.6,6.3,68,0.00,,,0.00,VWS V14.01,2013-06-06 20:05:00,
2013-06-06 16:06:00,63.7,52.9,30.04,SE,141,8.1,8.1,68,0.00,,,0.00,VWS V14.01,2013-06-06 20:06:00,
2013-06-06 16:10:00,63.5,53.2,30.04,SSE,147,2.7,8.1,69,0.00,,,0.00,VWS V14.01,2013-06-06 20:10:00,
2013-06-06 16:11:00,63.5,53.2,30.04,East,82,2.7,5.4,69,0.00,,,0.00,VWS V14.01,2013-06-06 20:11:00,
2013-06-06 16:15:00,63.5,53.2,30.01,ESE,106,3.1,5.4,69,0.00,,,0.00,VWS V14.01,2013-06-06 20:15:00,
2013-06-06 16:16:00,63.5,53.5,30.01,SE,124,4.0,4.0,70,0.00,,,0.00,VWS V14.01,2013-06-06 20:16:00,
2013-06-06 16:20:00,63.3,53.4,30.01,ESE,102,3.1,4.0,70,0.00,,,0.00,VWS V14.01,2013-06-06 20:20:00,
2013-06-06 16:21:00,63.3,53.8,30.01,ESE,113,3.6,4.9,71,0.00,,,0.00,VWS V14.01,2013-06-06 20:21:00,
2013-06-06 16:25:00,63.3,53.8,30.01,SE,135,0.0,5.4,71,0.00,,,0.00,VWS V14.01,2013-06-06 20:25:00,
2013-06-06 16:26:00,63.1,53.6,30.01,SE,141,3.1,4.0,71,0.00,,,0.00,VWS V14.01,2013-06-06 20:26:00,
2013-06-06 16:30:00,63.1,53.6,30.01,ESE,123,3.1,5.4,71,0.00,,,0.00,VWS V14.01,2013-06-06 20:30:00,
2013-06-06 16:31:00,63.1,54.0,30.01,ESE,123,0.0,3.1,72,0.00,,,0.00,VWS V14.01,2013-06-06 20:31:00,
2013-06-06 16:35:00,63.1,54.0,30.01,ESE,122,4.0,4.0,72,0.00,,,0.00,VWS V14.01,2013-06-06 20:35:00,
2013-06-06 16:36:00,63.0,53.8,30.01,ESE,122,3.1,8.3,72,0.00,,,0.00,VWS V14.01,2013-06-06 20:36:00,
2013-06-06 16:40:00,63.0,53.8,30.01,SE,133,3.1,8.3,72,0.00,,,0.00,VWS V14.01,2013-06-06 20:40:00,
2013-06-06 16:41:00,62.8,53.6,30.01,SE,132,2.7,3.6,72,0.00,,,0.00,VWS V14.01,2013-06-06 20:41:00,
2013-06-06 16:45:00,62.8,54.0,30.01,ESE,115,3.1,3.6,73,0.00,,,0.00,VWS V14.01,2013-06-06 20:45:00,
2013-06-06 16:47:00,62.6,53.8,30.01,SE,141,5.8,6.3,73,0.00,,,0.00,VWS V14.01,2013-06-06 20:47:00,
2013-06-06 16:50:00,62.6,53.8,30.01,ESE,122,3.6,6.3,73,0.00,,,0.00,VWS V14.01,2013-06-06 20:50:00,
2013-06-06 16:52:00,62.4,54.0,30.01,SE,126,4.0,5.8,74,0.00,,,0.00,VWS V14.01,2013-06-06 20:52:00,
2013-06-06 16:55:00,62.4,54.0,30.01,SE,126,5.4,6.3,74,0.00,,,0.00,VWS V14.01,2013-06-06 20:55:00,
2013-06-06 16:57:00,62.2,54.2,30.01,ESE,106,3.6,5.4,75,0.00,,,0.00,VWS V14.01,2013-06-06 20:57:00,
2013-06-06 17:00:00,62.2,54.2,30.01,SE,127,5.4,5.4,75,0.00,,,0.00,VWS V14.01,2013-06-06 21:00:00,
2013-06-06 17:02:00,62.2,54.6,30.01,SE,133,3.6,5.4,76,0.00,,,0.00,VWS V14.01,2013-06-06 21:02:00,
2013-06-06 17:05:00,62.1,54.4,30.01,SE,133,2.7,5.4,76,0.00,,,0.00,VWS V14.01,2013-06-06 21:05:00,
2013-06-06 17:07:00,62.1,54.4,30.01,SSE,147,0.0,4.0,76,0.00,,,0.00,VWS V14.01,2013-06-06 21:07:00,
2013-06-06 17:10:00,62.1,54.4,30.01,SSE,147,3.1,4.0,76,0.00,,,0.00,VWS V14.01,2013-06-06 21:10:00,
2013-06-06 17:12:00,62.1,54.8,30.01,ESE,116,3.6,4.0,77,0.00,,,0.00,VWS V14.01,2013-06-06 21:12:00,
2013-06-06 17:15:00,61.9,54.6,30.01,East,99,2.2,4.0,77,0.00,,,0.00,VWS V14.01,2013-06-06 21:15:00,
2013-06-06 17:17:00,61.9,55.0,30.01,South,169,2.2,4.9,78,0.00,,,0.00,VWS V14.01,2013-06-06 21:17:00,
2013-06-06 17:20:00,61.9,55.0,30.01,SE,142,3.1,4.9,78,0.00,,,0.00,VWS V14.01,2013-06-06 21:20:00,
2013-06-06 17:22:00,61.7,54.8,30.01,SSE,160,2.7,3.6,78,0.00,,,0.00,VWS V14.01,2013-06-06 21:22:00,
2013-06-06 17:25:00,61.7,54.8,30.01,South,177,3.6,3.6,78,0.00,,,0.00,VWS V14.01,2013-06-06 21:25:00,
2013-06-06 17:27:00,61.5,55.0,30.01,SSE,155,0.0,5.4,79,0.00,,,0.00,VWS V14.01,2013-06-06 21:27:00,
2013-06-06 17:30:00,61.5,55.0,30.01,SSE,155,0.0,5.4,79,0.00,,,0.00,VWS V14.01,2013-06-06 21:30:00,
2013-06-06 17:32:00,61.3,54.8,30.01,ESE,108,0.0,3.6,79,0.00,,,0.00,VWS V14.01,2013-06-06 21:32:00,
2013-06-06 17:35:00,61.3,54.8,30.01,ESE,108,0.0,3.6,79,0.00,,,0.00,VWS V14.01,2013-06-06 21:35:00,
2013-06-06 17:37:00,61.3,55.1,30.01,ESE,108,0.0,2.7,80,0.00,,,0.00,VWS V14.01,2013-06-06 21:37:00,
2013-06-06 17:40:00,61.5,55.3,30.01,ESE,108,0.0,2.7,80,0.04,,,0.04,VWS V14.01,2013-06-06 21:40:00,
2013-06-06 17:42:00,61.5,55.3,30.01,SSE,156,0.0,4.0,80,0.04,,,0.04,VWS V14.01,2013-06-06 21:42:00,
2013-06-06 17:45:00,61.5,55.3,30.01,SSE,156,0.0,4.0,80,0.04,,,0.04,VWS V14.01,2013-06-06 21:45:00,
2013-06-06 17:47:00,61.5,55.6,30.01,East,81,3.1,3.1,81,0.04,,,0.04,VWS V14.01,2013-06-06 21:47:00,
2013-06-06 17:50:00,61.5,55.6,30.01,East,81,0.0,3.1,81,0.04,,,0.04,VWS V14.01,2013-06-06 21:50:00,
2013-06-06 17:52:00,61.3,55.5,30.01,East,81,0.0,2.7,81,0.04,,,0.04,VWS V14.01,2013-06-06 21:52:00,
2013-06-06 17:55:00,61.3,55.5,30.01,SE,129,3.6,3.6,81,0.04,,,0.04,VWS V14.01,2013-06-06 21:55:00,
2013-06-06 17:57:00,61.3,55.5,30.01,SE,134,0.0,5.4,81,0.04,,,0.04,VWS V14.01,2013-06-06 21:57:00,
2013-06-06 18:00:00,61.3,55.5,30.01,SE,134,0.0,5.4,81,0.04,,,0.04,VWS V14.01,2013-06-06 22:00:00,
2013-06-06 18:03:00,61.3,55.8,30.01,SE,134,2.7,4.0,82,0.04,,,0.04,VWS V14.01,2013-06-06 22:03:00,
2013-06-06 18:05:00,61.3,55.8,30.01,SE,134,3.1,4.0,82,0.04,,,0.04,VWS V14.01,2013-06-06 22:05:00,
2013-06-06 18:08:00,61.0,55.5,30.01,ENE,78,0.0,3.1,82,0.04,,,0.04,VWS V14.01,2013-06-06 22:08:00,
2013-06-06 18:10:00,61.0,55.5,30.01,SE,137,3.1,3.6,82,0.04,,,0.04,VWS V14.01,2013-06-06 22:10:00,
2013-06-06 18:13:00,61.0,55.5,30.01,South,177,4.9,5.4,82,0.04,,,0.04,VWS V14.01,2013-06-06 22:13:00,
2013-06-06 18:15:00,61.0,55.5,30.01,SSE,155,3.1,5.4,82,0.04,,,0.04,VWS V14.01,2013-06-06 22:15:00,
2013-06-06 18:18:00,61.0,55.8,30.01,ENE,65,3.6,3.6,83,0.04,,,0.04,VWS V14.01,2013-06-06 22:18:00,
2013-06-06 18:20:00,61.0,55.8,30.01,ENE,61,2.2,4.9,83,0.04,,,0.04,VWS V14.01,2013-06-06 22:20:00,
2013-06-06 18:23:00,61.0,55.8,30.01,SE,130,2.2,4.9,83,0.04,,,0.04,VWS V14.01,2013-06-06 22:23:00,
2013-06-06 18:25:00,61.0,55.8,30.01,SE,130,2.2,4.9,83,0.04,,,0.04,VWS V14.01,2013-06-06 22:25:00,
2013-06-06 18:28:00,61.0,55.8,30.01,SE,126,0.0,5.8,83,0.04,,,0.04,VWS V14.01,2013-06-06 22:28:00,
2013-06-06 18:30:00,61.0,55.8,30.01,SE,126,0.0,5.8,83,0.04,,,0.04,VWS V14.01,2013-06-06 22:30:00,
2013-06-06 18:33:00,60.8,55.6,30.01,SE,141,0.0,3.1,83,0.04,,,0.04,VWS V14.01,2013-06-06 22:33:00,
2013-06-06 18:35:00,60.8,55.6,30.01,SE,137,2.7,3.1,83,0.04,,,0.04,VWS V14.01,2013-06-06 22:35:00,
2013-06-06 18:38:00,60.8,55.9,30.01,SE,137,2.2,3.6,84,0.04,,,0.04,VWS V14.01,2013-06-06 22:38:00,
2013-06-06 18:40:00,60.8,55.9,30.01,SE,137,0.0,3.6,84,0.04,,,0.04,VWS V14.01,2013-06-06 22:40:00,
2013-06-06 18:43:00,60.8,55.9,30.01,East,101,2.7,2.7,84,0.00,,,0.04,VWS V14.01,2013-06-06 22:43:00,
2013-06-06 18:45:00,60.8,55.9,30.01,East,101,0.0,2.7,84,0.00,,,0.04,VWS V14.01,2013-06-06 22:45:00,
2013-06-06 18:48:00,60.8,56.3,30.01,East,101,0.0,0.0,85,0.00,,,0.04,VWS V14.01,2013-06-06 22:48:00,
2013-06-06 18:50:00,60.8,56.3,30.01,East,101,2.7,2.7,85,0.00,,,0.04,VWS V14.01,2013-06-06 22:50:00,
2013-06-06 18:53:00,60.6,56.1,30.01,SSE,147,3.6,5.4,85,0.00,,,0.04,VWS V14.01,2013-06-06 22:53:00,
2013-06-06 18:55:00,60.6,56.1,30.01,SSE,160,2.2,5.4,85,0.00,,,0.04,VWS V14.01,2013-06-06 22:55:00,
2013-06-06 18:58:00,60.6,56.1,30.01,SSE,150,0.0,3.6,85,0.00,,,0.04,VWS V14.01,2013-06-06 22:58:00,
2013-06-06 19:00:00,60.6,56.1,30.01,SSE,150,3.1,3.6,85,0.00,,,0.04,VWS V14.01,2013-06-06 23:00:00,
2013-06-06 19:03:00,60.6,56.4,30.01,SE,134,0.0,4.0,86,0.00,,,0.04,VWS V14.01,2013-06-06 23:03:00,
2013-06-06 19:05:00,60.6,56.4,30.01,SE,134,0.0,4.0,86,0.00,,,0.04,VWS V14.01,2013-06-06 23:05:00,
2013-06-06 19:08:00,60.6,56.4,30.01,SE,142,0.0,5.4,86,0.00,,,0.04,VWS V14.01,2013-06-06 23:08:00,
2013-06-06 19:10:00,60.6,56.4,30.01,SE,142,0.0,5.4,86,0.00,,,0.04,VWS V14.01,2013-06-06 23:10:00,
2013-06-06 19:13:00,60.6,56.4,30.01,South,171,3.6,3.6,86,0.00,,,0.04,VWS V14.01,2013-06-06 23:13:00,
2013-06-06 19:15:00,60.4,56.2,30.01,SE,135,4.9,5.4,86,0.00,,,0.04,VWS V14.01,2013-06-06 23:15:00,
2013-06-06 19:18:00,60.4,56.6,30.01,ENE,60,0.0,4.9,87,0.00,,,0.04,VWS V14.01,2013-06-06 23:18:00,
2013-06-06 19:20:00,60.4,56.6,30.01,ENE,60,2.7,4.9,87,0.00,,,0.04,VWS V14.01,2013-06-06 23:20:00,
2013-06-06 19:23:00,60.4,56.6,30.01,SSE,157,4.9,5.8,87,0.00,,,0.04,VWS V14.01,2013-06-06 23:23:00,
2013-06-06 19:25:00,60.4,56.6,30.01,SSE,154,4.0,5.8,87,0.00,,,0.04,VWS V14.01,2013-06-06 23:25:00,
2013-06-06 19:28:00,60.4,56.6,30.01,ESE,113,2.7,4.0,87,0.00,,,0.04,VWS V14.01,2013-06-06 23:28:00,
2013-06-06 19:30:00,60.4,56.6,30.01,ESE,113,0.0,4.0,87,0.00,,,0.04,VWS V14.01,2013-06-06 23:30:00,
2013-06-06 19:33:00,60.4,56.6,30.01,SE,125,3.6,3.6,87,0.04,,,0.08,VWS V14.01,2013-06-06 23:33:00,
2013-06-06 19:35:00,60.4,56.6,30.01,SE,127,3.6,3.6,87,0.04,,,0.08,VWS V14.01,2013-06-06 23:35:00,
2013-06-06 19:38:00,60.3,56.4,30.01,SE,146,5.4,5.4,87,0.04,,,0.08,VWS V14.01,2013-06-06 23:38:00,
2013-06-06 19:40:00,60.3,56.4,30.01,SSE,163,3.1,5.4,87,0.04,,,0.08,VWS V14.01,2013-06-06 23:40:00,
2013-06-06 19:43:00,60.3,56.4,30.01,South,175,2.2,4.0,87,0.04,,,0.08,VWS V14.01,2013-06-06 23:43:00,
2013-06-06 19:45:00,60.3,56.4,30.01,South,174,2.7,4.0,87,0.04,,,0.08,VWS V14.01,2013-06-06 23:45:00,
2013-06-06 19:49:00,60.1,56.5,30.01,SSE,163,4.0,6.3,88,0.04,,,0.08,VWS V14.01,2013-06-06 23:49:00,
2013-06-06 19:50:00,60.1,56.5,30.01,SSE,156,2.7,6.3,88,0.04,,,0.08,VWS V14.01,2013-06-06 23:50:00,
2013-06-06 19:54:00,60.1,56.5,30.01,SSE,157,3.1,5.8,88,0.04,,,0.08,VWS V14.01,2013-06-06 23:54:00,
2013-06-06 19:55:00,60.1,56.5,30.01,SSE,157,2.2,5.8,88,0.04,,,0.08,VWS V14.01,2013-06-06 23:55:00,
2013-06-06 19:59:00,60.1,56.5,30.01,ESE,113,4.0,4.0,88,0.04,,,0.08,VWS V14.01,2013-06-06 23:59:00,
2013-06-06 20:00:00,60.1,56.5,30.01,ESE,113,4.0,4.0,88,0.04,,,0.08,VWS V14.01,2013-06-07 00:00:00,
2013-06-06 20:04:00,59.9,56.3,30.01,SSE,161,3.1,5.4,88,0.04,,,0.08,VWS V14.01,2013-06-07 00:04:00,
2013-06-06 20:05:00,59.9,56.3,30.01,SSE,161,2.2,5.4,88,0.04,,,0.08,VWS V14.01,2013-06-07 00:05:00,
2013-06-06 20:09:00,59.9,56.3,30.01,SSE,161,3.6,3.6,88,0.04,,,0.08,VWS V14.01,2013-06-07 00:09:00,
2013-06-06 20:10:00,59.9,56.3,30.01,SSE,161,3.6,3.6,88,0.04,,,0.08,VWS V14.01,2013-06-07 00:10:00,
2013-06-06 20:14:00,59.7,56.2,30.01,SE,127,3.1,7.6,88,0.04,,,0.08,VWS V14.01,2013-06-07 00:14:00,
2013-06-06 20:15:00,59.7,56.2,30.01,SE,127,0.0,7.6,88,0.04,,,0.08,VWS V14.01,2013-06-07 00:15:00,
2013-06-06 20:19:00,59.7,56.2,30.01,SSE,157,2.7,8.1,88,0.04,,,0.08,VWS V14.01,2013-06-07 00:19:00,
2013-06-06 20:20:00,59.7,56.2,30.01,SSE,157,0.0,8.1,88,0.04,,,0.08,VWS V14.01,2013-06-07 00:20:00,
2013-06-06 20:24:00,59.7,56.2,30.01,SSE,151,0.0,0.0,88,0.08,,,0.12,VWS V14.01,2013-06-07 00:24:00,
2013-06-06 20:25:00,59.7,56.2,30.01,SSE,151,0.0,3.1,88,0.08,,,0.12,VWS V14.01,2013-06-07 00:25:00,
2013-06-06 20:29:00,59.7,56.2,30.01,SSE,151,0.0,0.0,88,0.08,,,0.12,VWS V14.01,2013-06-07 00:29:00,
2013-06-06 20:30:00,59.7,56.2,30.01,SSE,151,0.0,3.1,88,0.08,,,0.12,VWS V14.01,2013-06-07 00:30:00,
2013-06-06 20:34:00,59.7,56.5,30.01,SSE,150,2.7,3.6,89,0.08,,,0.12,VWS V14.01,2013-06-07 00:34:00,
2013-06-06 20:35:00,59.7,56.5,30.01,SSE,150,2.7,3.6,89,0.08,,,0.12,VWS V14.01,2013-06-07 00:35:00,
2013-06-06 20:39:00,59.5,56.3,30.01,SSE,165,4.0,4.0,89,0.04,,,0.12,VWS V14.01,2013-06-07 00:39:00,
2013-06-06 20:40:00,59.5,56.3,30.01,South,179,4.0,4.5,89,0.04,,,0.12,VWS V14.01,2013-06-07 00:40:00,
2013-06-06 20:44:00,59.5,56.3,30.01,SSE,163,2.2,2.7,89,0.04,,,0.12,VWS V14.01,2013-06-07 00:44:00,
2013-06-06 20:45:00,59.5,56.3,30.01,SSE,163,2.7,4.0,89,0.04,,,0.12,VWS V14.01,2013-06-07 00:45:00,
2013-06-06 20:49:00,59.5,56.3,30.01,SSW,204,0.0,0.0,89,0.04,,,0.12,VWS V14.01,2013-06-07 00:49:00,
2013-06-06 20:50:00,59.5,56.3,30.01,SSW,204,0.0,3.1,89,0.04,,,0.12,VWS V14.01,2013-06-07 00:50:00,
2013-06-06 20:54:00,59.4,56.1,30.01,South,169,3.1,3.1,89,0.04,,,0.12,VWS V14.01,2013-06-07 00:54:00,
2013-06-06 20:55:00,59.4,56.1,30.01,South,169,2.2,4.9,89,0.04,,,0.12,VWS V14.01,2013-06-07 00:55:00,
2013-06-06 20:59:00,59.4,56.1,30.01,South,169,2.7,3.1,89,0.04,,,0.12,VWS V14.01,2013-06-07 00:59:00,
2013-06-06 21:00:00,59.4,56.1,30.01,South,169,2.7,3.1,89,0.04,,,0.12,VWS V14.01,2013-06-07 01:00:00,
2013-06-06 21:04:00,59.4,56.1,30.01,South,169,0.0,0.0,89,0.04,,,0.12,VWS V14.01,2013-06-07 01:04:00,
2013-06-06 21:05:00,59.4,56.1,30.01,South,169,0.0,4.0,89,0.04,,,0.12,VWS V14.01,2013-06-07 01:05:00,
2013-06-06 21:10:00,59.2,56.0,30.01,SSE,162,0.0,4.0,89,0.04,,,0.12,VWS V14.01,2013-06-07 01:10:00,
2013-06-06 21:15:00,59.2,56.0,30.01,SSE,159,0.0,2.2,89,0.12,,,0.20,VWS V14.01,2013-06-07 01:15:00,
2013-06-06 21:20:00,59.2,56.0,30.01,SSE,159,0.0,0.0,89,0.12,,,0.20,VWS V14.01,2013-06-07 01:20:00,
2013-06-06 21:25:00,59.2,56.0,30.01,SSE,159,0.0,2.2,89,0.08,,,0.20,VWS V14.01,2013-06-07 01:25:00,
2013-06-06 21:30:00,59.2,56.2,30.01,SE,143,0.0,2.7,90,0.08,,,0.20,VWS V14.01,2013-06-07 01:30:00,
2013-06-06 21:35:00,59.2,56.2,30.01,South,177,0.0,5.8,90,0.08,,,0.20,VWS V14.01,2013-06-07 01:35:00,
2013-06-06 21:40:00,59.0,56.1,30.01,WSW,258,0.0,3.1,90,0.08,,,0.20,VWS V14.01,2013-06-07 01:40:00,
2013-06-06 21:45:00,59.0,56.1,30.01,South,178,3.6,3.6,90,0.08,,,0.20,VWS V14.01,2013-06-07 01:45:00,
2013-06-06 21:50:00,59.0,56.1,30.01,SSW,206,0.0,3.1,90,0.08,,,0.20,VWS V14.01,2013-06-07 01:50:00,
2013-06-06 21:55:00,58.8,55.9,30.01,South,177,2.7,6.3,90,0.12,,,0.24,VWS V14.01,2013-06-07 01:55:00,
2013-06-06 22:00:00,58.8,55.9,30.01,South,173,0.0,0.0,90,0.12,,,0.24,VWS V14.01,2013-06-07 02:00:00,
2013-06-06 22:05:00,58.8,55.9,30.01,South,176,4.0,4.0,90,0.12,,,0.24,VWS V14.01,2013-06-07 02:05:00,
2013-06-06 22:10:00,58.8,55.9,30.01,South,173,6.7,6.7,90,0.12,,,0.24,VWS V14.01,2013-06-07 02:10:00,
2013-06-06 22:15:00,58.6,55.7,30.01,SSE,162,3.1,3.6,90,0.04,,,0.24,VWS V14.01,2013-06-07 02:15:00,
2013-06-06 22:20:00,58.6,55.7,30.01,South,172,4.0,4.0,90,0.04,,,0.24,VWS V14.01,2013-06-07 02:20:00,
2013-06-06 22:25:00,59.2,55.9,30.01,SSE,159,2.2,3.1,89,0.12,,,0.20,VWS V14.01,2013-06-07 02:25:00,
2013-06-06 22:30:00,59.2,55.9,30.01,SE,143,2.7,5.4,89,0.08,,,0.20,VWS V14.01,2013-06-07 02:30:00,
2013-06-06 22:32:00,58.5,55.8,29.98,SE,131,3.6,3.6,91,0.00,,,0.24,VWS V14.01,2013-06-07 02:32:00,
2013-06-06 22:35:00,58.5,55.8,29.98,SSE,157,0.0,5.8,91,0.04,,,0.24,VWS V14.01,2013-06-07 02:35:00,
2013-06-06 22:37:00,58.5,55.8,29.98,SSE,157,2.2,2.7,91,0.04,,,0.24,VWS V14.01,2013-06-07 02:37:00,
2013-06-06 22:40:00,58.5,55.8,29.98,SSE,155,4.0,4.9,91,0.04,,,0.24,VWS V14.01,2013-06-07 02:40:00,
2013-06-06 22:42:00,58.5,55.8,29.98,SSE,156,0.0,8.3,91,0.04,,,0.24,VWS V14.01,2013-06-07 02:42:00,
2013-06-06 22:45:00,58.5,55.8,29.98,SSE,157,4.9,8.3,91,0.04,,,0.24,VWS V14.01,2013-06-07 02:45:00,
2013-06-06 22:47:00,58.6,56.0,29.98,SSE,160,4.9,8.3,91,0.04,,,0.24,VWS V14.01,2013-06-07 02:47:00,
2013-06-06 22:50:00,58.6,56.0,29.98,SSE,160,0.0,8.3,91,0.04,,,0.24,VWS V14.01,2013-06-07 02:50:00,
2013-06-06 22:52:00,58.6,56.0,29.98,SSE,166,6.3,6.3,91,0.04,,,0.24,VWS V14.01,2013-06-07 02:52:00,
2013-06-06 22:55:00,58.6,56.0,29.98,SSE,165,4.9,6.3,91,0.04,,,0.24,VWS V14.01,2013-06-07 02:55:00,
2013-06-06 22:57:00,58.6,56.0,29.98,SSE,162,0.0,4.9,91,0.04,,,0.24,VWS V14.01,2013-06-07 02:57:00,
2013-06-06 23:00:00,58.6,56.0,29.98,East,93,2.7,5.8,91,0.04,,,0.24,VWS V14.01,2013-06-07 03:00:00,
2013-06-06 23:02:00,58.6,56.0,29.98,SSE,168,4.0,4.9,91,0.00,,,0.24,VWS V14.01,2013-06-07 03:02:00,
2013-06-06 23:05:00,58.6,56.0,29.98,SSE,166,0.0,6.3,91,0.00,,,0.24,VWS V14.01,2013-06-07 03:05:00,
2013-06-06 23:07:00,58.6,56.0,29.98,SSE,167,2.2,5.8,91,0.00,,,0.24,VWS V14.01,2013-06-07 03:07:00,
2013-06-06 23:10:00,58.6,56.0,29.98,SE,124,2.7,5.8,91,0.00,,,0.24,VWS V14.01,2013-06-07 03:10:00,
2013-06-06 23:12:00,58.6,56.0,29.98,SSE,149,2.7,6.3,91,0.00,,,0.24,VWS V14.01,2013-06-07 03:12:00,
2013-06-06 23:15:00,58.6,56.0,29.98,South,189,3.1,6.3,91,0.00,,,0.24,VWS V14.01,2013-06-07 03:15:00,
2013-06-06 23:17:00,58.6,56.3,29.98,SSE,159,2.7,7.6,92,0.00,,,0.24,VWS V14.01,2013-06-07 03:17:00,
2013-06-06 23:20:00,58.6,56.3,29.98,SSE,153,0.0,7.6,92,0.00,,,0.24,VWS V14.01,2013-06-07 03:20:00,
2013-06-06 23:22:00,58.6,56.3,29.98,SE,131,3.6,7.6,92,0.00,,,0.24,VWS V14.01,2013-06-07 03:22:00,
2013-06-06 23:25:00,58.6,56.3,29.98,SE,142,3.6,8.3,92,0.00,,,0.24,VWS V14.01,2013-06-07 03:25:00,
2013-06-06 23:27:00,58.6,56.3,29.98,SE,143,2.7,4.0,92,0.00,,,0.24,VWS V14.01,2013-06-07 03:27:00,
2013-06-06 23:30:00,58.6,56.3,29.98,South,170,4.9,6.3,92,0.00,,,0.24,VWS V14.01,2013-06-07 03:30:00,
2013-06-06 23:32:00,58.6,56.3,29.98,SE,129,3.6,5.8,92,0.00,,,0.24,VWS V14.01,2013-06-07 03:32:00,
2013-06-06 23:35:00,58.6,56.3,29.98,SE,140,0.0,5.8,92,0.00,,,0.24,VWS V14.01,2013-06-07 03:35:00,
2013-06-06 23:38:00,58.6,56.3,29.98,SSE,159,0.0,3.1,92,0.00,,,0.24,VWS V14.01,2013-06-07 03:38:00,
2013-06-06 23:40:00,58.6,56.3,29.98,SSE,159,0.0,3.1,92,0.00,,,0.24,VWS V14.01,2013-06-07 03:40:00,
2013-06-06 23:43:00,58.6,56.3,29.98,SSE,157,5.4,5.4,92,0.00,,,0.24,VWS V14.01,2013-06-07 03:43:00,
2013-06-06 23:45:00,58.6,56.3,29.98,SE,140,3.1,5.4,92,0.00,,,0.24,VWS V14.01,2013-06-07 03:45:00,
2013-06-06 23:48:00,58.6,56.3,29.98,ESE,120,3.1,5.8,92,0.00,,,0.24,VWS V14.01,2013-06-07 03:48:00,
2013-06-06 23:50:00,58.5,56.2,29.98,South,189,3.1,5.8,92,0.00,,,0.24,VWS V14.01,2013-06-07 03:50:00,
2013-06-06 23:53:00,58.5,56.2,29.98,South,179,0.0,3.1,92,0.00,,,0.24,VWS V14.01,2013-06-07 03:53:00,
2013-06-06 23:55:00,58.5,56.2,29.98,South,179,0.0,3.1,92,0.04,,,0.28,VWS V14.01,2013-06-07 03:55:00,
2013-06-06 23:58:00,58.5,56.2,29.98,South,173,3.6,4.0,92,0.04,,,0.28,VWS V14.01,2013-06-07 03:58:00,